Tracking 35274 objects as of 11-Sep-2026
HD Live streaming from Space Station
objects crossing your sky now

FREGAT DEB

Track FREGAT DEB now!
10-day predictions


NORAD ID: 45887
Int'l Code: 2011-037DG
Launch date: July 18, 2011
Source: Commonwealth of Independent States (former USSR) (CIS)
Launch site: TYURATAM MISSILE AND SPACE COMPLEX (TTMTR)

Note: This is SATELLITE DEBRIS
Your satellite tracking list
Your tracking list is empty




NASA's NSSDC Master Catalog

Two Line Element Set (TLE):
1 45887U 11037DG  23189.80258542  .00331117  00000-0  52944+0 0  9990
2 45887  52.0185 337.4297 1380153 157.4120 350.5773 11.59529448123397
Source of the keplerian elements: AFSPC